GFSNGP_prec_cthk_000.txt.gz
RH
64 62 67 67 58 55 53 54 61 52 59 51 57 59 64 62 63 67 69 72 77 76 78 78 78 75 75 73 70 67 68 70 76 81 86 94 95 93 90 89 89 80 62 44
70 60 66 65 56 52 53 56 56 56 55 56 53 56 60 67 70 72 74 77 78 82 82 81 79 81 75 74 70 70 72 79 87 91 92 94 94 90 90 85 68 45 30 27
80 68 73 74 60 59 65 65 64 64 55 54 58 66 72 72 75 74 80 83 84 80 79 80 78 79 80 73 72 79 85 91 96 97 96 93 91 91 84 64 37 28 25 26
89 87 85 64 56 57 62 65 65 63 57 63 66 70 76 80 84 81 82 84 80 80 81 81 78 76 71 77 88 88 94 96 97 94 92 92 88 83 62 35 28 24 27 34
90 82 70 71 57 69 69 65 66 72 77 83 81 80 81 88 89 94 87 85 83 83 79 74 72 67 78 84 87 92 93 92 90 90 86 82 76 49 31 27 25 30 35 38
84 88 81 60 58 64 69 71 82 85 86 92 85 88 83 86 85 86 89 86 84 78 75 68 67 73 77 79 82 85 90 87 84 81 79 66 43 30 26 27 31 34 37 41
84 87 71 60 68 75 88 94 89 90 95 90 92 91 87 85 85 92 86 81 79 76 67 67 73 75 78 82 86 92 86 84 80 74 57 40 31 28 29 31 34 38 44 49
90 94 83 74 79 92 86 87 91 85 87 90 90 89 86 85 89 87 81 76 75 72 71 75 78 81 85 85 85 86 86 81 67 52 41 32 30 30 31 34 38 43 46 55
75 78 61 67 79 80 88 88 86 93 88 90 85 81 82 83 84 81 73 72 73 72 75 80 83 84 88 88 88 86 76 62 50 41 33 32 32 32 34 38 42 45 54 75
76 62 63 70 74 82 83 90 95 93 88 84 84 75 75 78 79 73 69 68 68 74 81 85 90 88 90 87 83 70 58 49 43 35 33 34 33 36 38 42 46 49 67 91
71 63 69 67 79 87 91 91 92 89 81 77 81 76 70 66 65 64 66 69 72 79 85 92 90 90 87 80 67 57 49 45 38 35 35 34 36 40 42 47 48 54 88 94
75 71 85 68 68 81 86 95 90 81 76 71 74 67 63 65 67 66 63 67 77 85 89 89 86 84 75 63 55 50 46 36 34 35 37 38 39 40 45 47 44 70 93 98
80 71 67 75 81 82 87 83 82 79 80 73 64 63 64 65 66 62 68 80 87 87 88 86 78 69 64 55 51 44 35 35 37 41 42 42 42 43 45 46 46 83 96 98
70 81 84 82 84 80 77 77 78 80 75 72 66 61 63 62 64 69 79 89 90 88 87 76 69 62 59 52 43 37 36 39 45 48 44 45 48 53 59 49 50 91 98 98
81 86 88 83 78 78 78 80 78 77 70 68 71 65 53 61 73 85 93 91 87 81 75 72 60 54 49 43 40 42 44 48 54 54 51 51 59 62 64 45 58 95 97 97
77 75 78 75 73 73 72 68 69 71 69 72 62 46 59 72 81 91 91 83 75 71 70 60 53 45 41 42 43 45 54 59 65 64 59 61 65 68 66 45 64 98 98 98
70 74 75 76 73 74 73 69 68 64 61 49 44 58 68 75 81 77 75 73 73 70 60 49 42 43 44 44 44 47 55 66 75 71 69 71 77 72 66 48 68 98 98 98
73 71 77 79 78 74 67 63 60 50 49 50 59 72 71 73 72 73 73 74 68 55 45 42 45 44 45 44 45 54 63 76 83 78 79 79 81 78 66 51 73 99 98 98
68 69 66 61 58 54 47 43 45 50 60 71 71 76 76 74 73 75 72 62 51 43 40 42 44 46 46 44 55 64 73 88 88 84 84 86 82 75 67 54 78 98 98 98
49 44 36 35 36 42 46 52 59 63 77 80 83 82 77 76 76 70 58 49 42 40 42 42 43 44 45 58 68 72 85 90 86 89 88 86 78 71 68 65 83 90 98 98
34 29 29 33 38 43 52 66 77 82 89 87 88 81 80 78 68 54 41 33 34 34 34 35 39 47 58 66 70 79 87 87 86 93 89 85 76 73 72 80 85 80 94 98
32 34 37 40 42 45 60 81 87 94 91 92 84 83 78 66 51 39 33 31 30 29 32 36 44 55 65 71 76 83 88 84 92 94 91 87 77 74 75 85 84 77 79 96
33 39 40 41 47 55 72 88 95 95 94 87 84 80 65 49 36 27 28 29 28 32 35 43 52 59 67 73 79 86 84 85 95 95 93 88 80 78 83 86 82 75 71 79
39 41 44 48 55 68 84 94 97 95 91 86 82 67 50 37 28 31 31 30 34 36 40 51 57 63 68 73 79 82 84 90 97 98 95 92 83 81 85 85 81 76 70 70
50 51 48 55 66 86 97 98 97 93 88 85 72 53 37 29 24 26 31 35 37 42 50 56 60 63 67 71 76 83 91 97 97 98 98 92 86 80 87 88 84 78 73 68
60 56 47 60 83 97 98 97 96 94 89 80 62 46 35 25 25 29 33 36 39 42 48 56 62 65 69 74 79 87 96 97 97 98 98 95 87 79 82 88 85 82 76 71
62 52 56 74 96 98 98 98 96 93 82 68 55 43 32 25 28 32 38 39 42 44 47 53 61 68 74 79 81 84 94 96 97 98 98 97 92 82 77 79 82 80 76 72

GFSNGP_prec_cthk_003.txt.gz
RH
57 62 65 66 58 54 60 62 69 57 65 60 68 68 66 66 67 67 70 69 70 70 67 67 68 69 69 70 65 66 64 66 66 69 71 72 76 82 86 83 84 81 69 54
62 56 65 70 55 55 63 66 64 61 64 69 66 69 67 68 69 74 76 74 75 73 71 70 69 67 68 68 68 69 72 73 77 82 85 88 92 90 89 88 84 68 47 29
69 67 75 74 50 57 61 60 63 71 70 73 77 77 77 82 83 80 80 78 78 78 72 66 67 70 68 65 65 69 78 85 89 90 98 94 91 89 88 81 61 36 26 24
80 84 86 58 54 55 60 66 68 67 74 81 79 79 86 85 87 81 79 79 76 73 68 66 70 69 66 64 68 72 80 85 87 93 92 88 89 86 80 54 35 26 24 28
83 84 71 57 56 61 62 61 72 76 77 79 87 81 74 77 83 84 81 80 74 69 70 70 69 65 63 66 66 70 78 85 86 87 88 88 84 75 49 36 26 26 28 33
81 84 77 55 57 62 66 66 78 85 87 85 95 88 71 78 79 76 78 77 71 67 64 65 70 69 70 70 71 76 85 91 93 89 89 85 61 47 38 31 30 29 31 35
79 82 70 57 63 67 77 72 74 80 82 85 89 89 88 82 71 69 75 71 68 66 65 67 69 70 74 75 77 86 89 89 90 87 71 56 47 43 35 32 30 30 34 40
88 88 82 64 66 73 74 74 81 78 81 87 88 88 89 79 75 73 65 62 63 63 66 68 69 70 69 78 87 93 91 86 76 61 52 49 45 38 34 31 30 32 35 38
81 75 61 66 72 68 77 80 77 83 83 87 88 89 79 75 71 61 63 65 59 61 63 67 67 77 84 93 91 88 81 66 56 52 49 46 39 35 34 32 34 36 36 38
82 66 63 73 67 69 70 76 79 81 95 95 86 79 74 74 68 73 70 61 64 62 59 63 71 81 89 89 85 73 60 55 53 50 45 39 38 38 36 37 39 38 38 47
75 72 71 65 71 74 76 83 86 90 87 82 78 71 73 74 73 70 72 71 75 65 61 70 80 88 88 81 67 57 55 53 49 44 40 39 40 40 41 44 44 42 45 67
79 72 81 70 75 84 87 89 87 82 76 79 73 74 74 68 66 74 74 72 73 68 75 84 88 87 74 64 57 56 52 49 43 40 42 45 41 41 46 49 50 44 50 84
83 75 75 78 82 84 82 83 81 83 82 75 68 70 69 70 76 81 78 69 67 78 85 89 84 74 67 58 56 54 47 41 41 46 52 52 48 50 48 53 55 47 54 94
74 76 80 88 88 83 77 74 78 80 79 76 71 73 74 72 72 71 65 71 76 86 86 79 77 72 63 57 52 47 41 40 42 51 59 62 61 61 62 60 59 45 66 98
73 82 81 78 71 75 73 74 77 75 73 71 71 70 66 64 65 57 65 74 81 76 75 81 77 62 53 50 44 44 42 41 47 57 68 72 70 72 71 70 63 48 86 98
68 71 69 73 74 76 80 72 69 71 65 65 62 61 58 55 62 67 73 76 75 74 77 71 58 48 47 45 47 45 44 52 60 68 79 79 79 79 79 76 59 53 95 98
73 80 81 81 68 61 63 67 62 47 49 56 58 59 57 63 68 76 75 75 76 75 66 49 40 43 49 50 49 44 51 64 70 84 84 82 83 85 83 75 56 64 98 98
75 74 68 68 65 62 56 46 42 43 45 53 67 75 67 71 82 79 78 77 71 59 43 39 41 43 45 46 45 50 63 68 81 84 83 85 87 85 76 70 56 82 98 98
70 67 61 52 52 50 44 41 41 42 46 58 73 77 76 86 83 80 77 69 54 38 34 35 34 37 41 44 53 63 68 76 86 83 84 89 88 80 74 71 65 89 97 99
66 58 50 45 39 42 42 41 42 45 52 68 83 81 92 87 84 78 66 45 34 30 33 30 31 36 41 51 63 69 74 82 83 84 90 92 88 79 78 77 82 85 86 99
60 52 45 43 39 36 39 42 46 50 60 78 86 94 89 85 79 64 41 30 29 28 27 30 35 39 48 57 63 71 80 84 81 88 94 95 90 80 78 85 87 81 78 96
48 49 45 44 45 40 41 45 51 56 73 87 97 91 88 82 66 43 32 29 28 30 33 35 39 47 53 59 66 73 80 82 84 94 97 96 91 82 83 87 84 80 73 86
46 42 44 45 48 49 43 49 57 65 91 97 94 90 85 71 47 34 29 30 32 36 38 41 46 49 53 58 63 71 78 86 92 97 98 97 92 84 87 89 83 78 73 74
48 45 49 49 57 60 50 51 61 78 97 95 92 89 79 55 38 32 30 33 36 37 39 43 47 51 54 58 65 73 81 92 95 97 98 98 94 86 85 92 89 83 74 71
50 52 57 58 61 70 69 63 71 94 97 95 92 86 69 45 33 28 27 34 37 40 43 46 49 53 56 61 67 73 80 92 95 96 98 98 97 90 81 89 91 85 81 74
54 56 63 76 77 82 68 71 91 98 98 97 93 83 64 44 34 29 30 35 38 41 45 48 51 52 54 58 64 73 78 84 93 96 97 98 99 93 83 81 86 84 80 76
69 78 91 91 85 76 69 92 98 98 98 98 92 80 62 44 36 35 34 37 38 40 44 49 52 55 57 58 61 69 78 83 86 93 95 96 97 97 90 84 80 81 80 77

GFSNGP_prec_cthk_009.txt.gz
RH
50 55 56 52 55 55 63 61 72 58 58 52 55 62 67 68 71 71 69 68 74 79 71 70 74 61 55 53 53 52 51 53 58 63 60 67 72 78 83 92 95 92 89 86
50 54 57 58 56 62 58 58 61 59 56 53 59 65 69 68 71 72 71 69 72 73 70 71 68 67 64 61 57 53 52 54 61 68 72 82 88 88 95 97 98 96 92 85
64 67 71 59 58 58 58 56 57 63 57 58 63 66 65 63 67 68 69 73 76 76 73 69 69 73 75 66 57 56 59 67 74 82 77 84 90 94 92 93 92 86 80 68
77 78 82 51 54 54 57 57 57 63 63 65 68 66 68 72 73 76 77 78 75 71 71 77 79 76 67 67 70 74 74 78 83 80 79 81 92 91 85 82 76 67 55 49
81 87 74 57 55 57 58 61 61 69 71 72 74 74 68 74 80 80 79 78 78 87 83 75 69 66 68 65 71 79 79 84 83 86 83 84 83 79 75 70 63 56 51 44
85 90 85 61 61 62 68 75 73 76 77 78 81 85 77 85 88 83 82 77 73 77 74 70 69 70 68 65 75 78 77 80 83 87 84 76 69 65 61 57 53 47 42 38
87 87 78 63 63 67 81 78 75 78 80 81 87 86 87 88 88 86 78 72 71 66 63 61 66 71 67 57 67 74 78 80 83 77 65 60 58 56 53 48 43 40 37 32
85 91 83 68 76 81 78 78 78 76 78 80 83 83 79 84 83 80 86 80 70 60 54 60 69 76 63 61 70 80 84 84 71 62 58 56 53 50 43 39 40 41 38 35
82 82 74 77 78 77 80 76 76 78 84 86 83 83 86 82 77 81 80 69 61 62 59 63 71 77 74 75 84 89 82 70 63 58 56 51 42 35 36 41 44 46 45 42
89 80 75 80 78 82 83 80 83 87 84 78 80 87 77 80 84 80 65 57 59 63 63 69 78 76 83 88 90 81 74 68 60 52 40 39 37 41 45 48 54 57 56 52
86 83 76 74 75 82 87 98 93 84 81 79 77 71 74 74 75 74 61 59 63 64 63 62 61 66 77 84 83 76 68 58 43 38 42 40 43 52 56 68 70 65 64 61
84 76 78 72 81 96 94 89 86 76 74 69 69 61 58 59 60 57 59 53 55 60 55 60 70 79 80 82 79 67 47 44 43 43 41 46 55 62 79 76 75 75 71 68
80 74 81 79 92 92 89 79 69 70 65 61 60 62 58 56 56 58 54 53 58 61 67 76 83 79 80 81 66 42 43 48 47 41 47 57 64 72 71 74 80 79 72 68
77 78 80 80 81 69 64 58 55 62 63 66 68 63 60 56 53 54 47 49 59 64 76 84 81 78 75 55 42 39 44 49 49 49 59 65 70 73 74 78 82 77 71 64
68 60 58 63 58 57 60 62 58 59 64 68 62 54 49 42 44 48 51 56 61 74 82 81 78 65 44 36 34 38 45 51 50 59 65 72 74 75 82 86 82 74 65 71
53 57 59 63 64 56 53 54 58 60 57 49 48 45 41 43 46 51 55 55 68 84 84 76 59 38 31 34 39 42 45 47 57 62 69 74 74 83 88 85 81 75 72 84
59 65 63 56 59 60 57 52 53 51 49 54 56 48 41 42 48 53 53 63 79 83 75 60 39 31 30 35 34 39 48 55 61 70 75 75 79 88 87 84 81 82 79 85
57 53 55 56 54 53 53 57 62 60 53 50 45 42 43 49 54 52 59 73 83 78 65 42 30 27 32 34 38 47 53 58 65 71 75 82 89 92 85 83 85 91 81 84
58 58 62 65 67 66 59 54 51 48 48 50 47 46 46 54 58 64 69 86 82 69 48 32 28 31 37 43 46 50 53 58 64 71 80 87 91 91 83 83 87 86 79 83
55 58 56 54 56 56 52 47 48 48 47 51 52 52 52 62 68 73 85 85 72 57 36 33 32 36 42 46 48 51 54 58 65 75 81 87 91 89 82 85 87 82 78 82
55 49 48 46 45 46 50 50 48 48 46 53 58 60 66 75 79 84 94 83 67 49 37 36 35 36 42 46 49 53 57 59 65 74 80 86 90 89 82 81 86 83 78 81
41 42 40 41 43 42 40 40 47 52 60 71 74 74 79 85 87 96 92 78 61 47 41 37 35 38 41 43 49 57 59 62 65 70 78 84 87 87 84 80 87 91 84 78
41 42 42 41 43 44 43 47 55 64 70 80 87 89 91 92 98 97 86 71 55 48 41 37 37 40 43 45 47 55 61 64 67 70 73 78 84 86 83 81 81 92 90 77
44 42 43 45 50 52 56 57 64 67 75 86 83 81 93 97 97 94 81 66 54 46 42 41 41 42 46 49 46 53 61 66 70 73 74 74 77 81 82 80 80 80 82 79
46 50 53 56 58 58 62 65 66 73 79 79 67 87 97 97 96 90 78 62 52 47 43 44 45 48 51 47 45 52 60 68 72 73 75 77 76 76 81 80 79 81 77 76
54 57 59 66 71 72 75 74 72 73 72 66 75 97 96 95 93 87 78 64 58 51 46 46 47 50 50 44 47 54 59 68 71 74 74 75 75 77 79 83 81 81 81 81
55 59 60 68 81 79 78 79 76 71 67 70 90 97 94 94 93 90 81 67 60 55 53 52 51 49 47 51 52 54 61 68 70 70 72 73 74 75 78 82 86 84 84 87

GFSNGP_prec_cthk_012.txt.gz
RH
48 45 45 47 51 56 68 66 75 58 62 56 56 57 58 60 62 62 61 63 65 67 69 68 67 69 69 69 68 70 63 62 60 62 62 59 61 63 73 84 93 98 98 99
56 57 60 59 56 61 63 63 66 65 63 55 56 63 64 61 64 65 67 70 71 70 70 71 71 68 68 67 72 67 64 65 70 65 64 67 73 80 87 96 96 95 90 86
62 63 61 52 51 61 60 58 58 61 54 57 64 67 65 64 66 68 72 70 73 75 70 67 72 71 69 65 63 63 62 64 69 73 68 77 81 84 90 92 88 84 80 72
75 72 77 52 55 58 60 58 56 58 61 67 69 70 71 74 70 75 75 76 79 74 71 74 77 70 63 62 61 62 62 66 72 79 72 77 82 83 79 75 70 67 64 60
83 82 75 58 57 60 62 61 59 64 69 71 74 70 70 70 72 79 82 76 71 76 78 74 67 59 64 64 65 62 66 66 66 69 71 77 70 64 62 60 59 58 56 54
88 93 91 63 65 66 70 74 73 73 75 77 78 78 74 79 85 89 78 75 73 75 73 66 62 64 66 68 63 64 70 73 76 77 72 61 58 57 57 55 50 41 36 39
92 94 81 65 69 74 84 76 73 78 77 77 83 88 92 91 87 74 68 68 74 71 64 61 63 62 62 63 65 66 78 86 87 74 64 60 57 52 40 36 34 37 37 40
88 93 83 67 74 80 76 74 75 79 79 86 93 94 89 89 77 66 66 71 70 58 55 57 58 62 68 72 74 77 83 86 77 71 63 51 36 34 38 35 39 42 43 48
80 80 68 70 77 78 75 76 75 77 86 93 98 98 89 74 64 62 61 62 61 53 52 54 53 51 56 66 76 84 86 79 72 58 38 36 36 37 36 44 49 57 60 57
81 70 67 77 78 77 79 82 80 84 95 95 90 84 73 61 56 52 57 57 51 46 46 42 49 52 59 70 81 83 80 74 46 38 39 39 39 42 52 57 63 63 62 64
83 75 71 73 83 87 84 98 92 93 90 80 73 64 58 56 56 53 51 48 49 45 41 45 53 64 76 85 86 83 74 48 38 42 44 39 42 55 62 69 70 67 72 73
77 80 85 91 90 86 94 90 81 70 66 65 64 61 62 59 56 54 51 47 43 43 45 53 61 74 86 89 86 72 49 41 39 41 47 49 52 57 74 73 74 80 82 76
78 88 92 91 90 86 77 64 58 60 63 63 61 63 61 56 50 45 44 49 45 45 50 56 61 78 86 83 67 47 41 38 40 44 47 53 58 64 62 70 87 84 78 73
82 82 83 87 82 68 61 63 58 60 61 59 60 55 53 53 47 46 45 46 45 52 54 54 69 81 81 61 39 35 35 39 44 45 52 59 68 68 70 78 81 80 77 73
77 74 72 65 63 60 57 57 57 53 48 46 48 50 51 54 55 44 41 46 51 53 55 64 77 77 59 36 32 35 39 38 42 49 57 64 68 75 84 87 82 80 81 79
67 66 62 59 59 56 53 53 50 42 41 44 47 50 53 52 45 43 46 49 51 56 63 73 75 63 38 32 35 35 35 39 47 52 58 66 75 83 89 86 82 84 88 78
68 60 59 59 56 49 46 48 47 42 42 47 47 43 44 45 42 44 50 53 56 66 73 81 68 46 32 33 33 38 43 47 49 52 60 70 79 86 90 83 85 89 86 78
63 59 55 53 51 48 46 50 50 46 41 43 47 46 45 46 48 49 57 63 71 76 85 76 57 35 36 34 38 42 47 50 51 55 63 71 79 85 86 81 85 87 80 79
61 55 51 49 46 48 52 53 49 46 45 46 43 46 49 58 66 65 71 77 83 88 83 66 45 38 40 39 40 43 46 52 54 58 64 69 77 82 82 81 82 85 77 80
47 48 46 46 47 44 41 42 42 40 38 42 47 53 61 66 73 76 80 90 94 90 75 54 43 41 39 39 42 46 46 52 58 61 64 68 75 80 79 77 78 86 81 82
46 44 39 39 37 35 37 40 44 45 46 49 58 66 68 72 83 88 93 97 97 87 67 51 46 42 38 41 44 49 48 51 60 64 67 69 71 75 79 76 74 82 85 78
42 40 35 35 38 37 36 40 48 53 56 60 67 73 74 80 82 92 97 94 93 80 62 52 46 42 43 44 48 51 48 51 59 67 71 73 73 73 75 75 73 75 83 78
35 37 38 40 42 44 43 49 55 62 66 70 70 72 76 71 78 94 94 93 85 70 61 53 45 44 45 47 51 53 48 53 59 68 73 76 75 76 77 77 75 73 73 74
39 41 42 46 48 50 49 51 62 69 74 74 73 74 74 70 91 94 92 90 78 66 59 54 48 46 47 50 52 50 50 56 59 68 75 76 77 78 78 78 77 76 73 72
46 47 50 51 51 53 55 57 62 70 72 74 71 66 63 83 96 94 93 85 78 69 62 54 53 51 52 55 50 50 52 54 61 69 72 72 73 73 76 78 78 79 77 76
49 50 49 53 59 59 58 67 73 73 76 75 73 68 74 91 95 93 90 89 80 67 63 57 56 56 53 50 51 52 51 56 62 68 69 70 72 74 75 75 77 80 82 82
49 52 52 52 58 59 66 79 77 77 79 80 78 77 81 93 94 94 93 88 80 69 66 60 49 47 50 54 57 56 55 58 61 63 71 74 75 76 78 78 78 78 84 86